Temperature
17 17 17 16 16 16 16 16 16 16 16 16 16 16 16 16 16 16 16 16 16 16 16 16 16 16 16 16 16 16 16 16 16 16 16 16 17 17 17 17 17 17 17
17 16 16 16 16 16 16 16 16 16 16 16 16 16 16 16 16 16 16 16 16 16 16 16 16 16 16 16 16 16 16 16 16 16 16 16 16 16 16 16 17 17 17
17 16 16 16 16 16 16 16 16 16 16 16 16 16 16 16 16 16 16 16 16 16 16 16 16 16 16 16 16 16 16 16 16 16 16 16 16 16 16 16 16 16 16
16 16 16 16 16 16 16 16 16 16 16 16 16 16 16 16 16 16 16 15 15 15 15 15 15 15 15 15 15 16 15 16 16 16 16 16 16 16 16 16 16 16 16
16 16 16 16 16 16 16 16 16 16 16 16 16 16 16 15 15 15 15 15 15 15 15 15 15 15 15 15 15 15 15 15 15 15 15 16 16 16 16 16 16 16 16
16 16 16 16 16 16 16 16 16 16 16 16 15 15 15 15 15 15 15 15 15 15 15 15 15 15 15 15 15 15 15 15 15 15 15 15 15 15 15 15 15 15 16
16 16 16 16 16 16 16 16 16 16 15 15 15 15 15 15 15 15 15 15 15 15 15 15 15 15 15 15 15 15 15 15 15 15 15 15 15 15 15 15 15 15 15
16 16 16 16 16 16 15 15 16 15 15 15 15 15 15 15 15 15 15 15 15 15 15 14 15 14 14 14 14 14 14 15 15 15 15 15 15 15 15 15 15 15 15
16 16 16 16 15 15 15 15 15 15 15 15 15 15 15 15 14 14 14 14 14 14 14 14 14 14 14 14 14 14 14 14 14 14 14 14 14 14 15 15 15 15 15
15 15 15 15 15 15 15 15 15 15 15 15 15 15 15 15 15 14 14 14 14 14 14 14 14 14 14 14 14 14 14 14 14 14 14 14 14 14 14 14 14 14 14
15 15 15 15 15 15 15 15 15 15 15 15 15 15 15 15 15 15 14 14 14 14 14 14 13 13 14 14 14 14 14 14 14 14 14 14 14 14 14 14 14 14 14
15 15 15 15 15 15 15 15 15 15 15 15 15 15 15 15 15 15 14 14 14 13 13 13 13 13 13 13 13 13 13 13 13 13 13 13 13 13 13 13 13 14 14
15 15 15 15 15 15 15 15 15 15 15 15 15 15 15 15 15 15 15 14 14 13 13 13 13 13 13 13 13 13 13 13 13 13 13 13 13 13 13 13 13 13 13
15 15 15 15 15 15 15 15 15 15 15 15 15 15 15 15 15 15 15 14 14 13 13 13 13 13 13 13 13 13 13 13 13 13 13 13 13 13 13 13 13 13 13
15 15 15 15 15 15 15 15 15 15 15 15 15 14 14 14 14 14 14 14 14 13 13 13 13 12 12 12 12 12 12 12 12 12 12 13 13 13 13 13 13 13 13
15 15 15 15 15 15 15 15 15 15 15 14 14 14 14 14 14 14 14 14 14 14 13 13 13 12 12 12 12 12 12 12 12 12 12 12 12 12 12 12 12 12 12
15 15 15 15 15 15 15 15 15 14 14 14 14 14 14 14 14 14 14 14 13 13 13 13 12 12 12 12 12 12 12 12 12 12 12 12 12 12 12 12 12 12 12
15 15 15 15 15 15 15 15 15 14 14 14 14 14 14 14 14 14 13 13 13 13 13 13 12 12 12 12 12 11 11 11 11 11 11 11 11 11 11 11 12 11 11
15 15 15 15 15 15 15 14 14 14 14 14 14 14 14 14 13 13 13 13 13 13 13 12 12 12 12 11 11 11 11 11 11 11 11 11 11 11 11 11 11 11 11
15 15 15 15 15 15 14 14 14 14 14 14 14 13 13 13 13 13 13 13 13 13 12 12 12 12 11 11 11 11 11 11 11 11 11 11 11 11 11 11 11 10 10
15 15 15 15 15 14 14 14 14 14 14 14 13 13 13 13 13 13 13 13 12 12 12 12 12 11 11 11 11 11 11 11 11 10 10 10 10 10 10 10 10 10 10
15 15 15 14 14 14 14 14 14 14 13 13 13 13 13 13 13 13 13 12 12 12 12 12 11 11 11 11 11 10 10 10 10 10 10 10 10 10 10 10 10 9 9
15 15 14 14 14 14 14 14 14 14 13 13 13 13 13 13 12 12 12 12 12 12 11 11 11 11 11 10 10 10 10 10 10 10 10 10 10 10 9 9 9 9 9
14 14 14 14 14 14 14 14 13 13 13 13 13 13 13 12 12 12 12 12 12 11 11 11 11 11 10 10 10 10 10 10 10 10 9 9 9 9 9 9 9 9 9
14 14 14 14 14 14 13 13 13 13 13 13 12 12 12 12 12 12 11 11 11 11 11 11 10 10 10 10 10 10 10 9 9 9 9 9 9 8 9 9 8 8 8
14 14 14 13 13 13 13 13 13 13 13 12 12 12 12 12 12 11 11 11 11 11 10 10 10 10 10 9 9 9 9 9 9 8 8 8 8 8 8 8 8 8 8
Wind_Speed
2 2 1 1 0 0 1 2 2 3 4 4 5 6 5 5 5 5 5 6 7 7 8 8 6 6 6 5 5 5 4 4 4 4 4 4 4 4 4 4 4 4 3
4 3 2 2 1 2 3 3 3 3 3 3 4 5 5 5 5 5 4 5 7 7 7 8 8 7 7 6 6 6 5 5 5 5 5 5 4 4 5 4 4 4 4
6 4 3 2 2 4 5 5 4 4 3 4 4 4 4 4 4 4 4 4 5 6 7 8 9 9 8 7 6 6 5 5 6 6 5 4 4 4 5 5 6 6 5
7 6 4 2 4 5 5 3 3 4 4 4 4 3 3 3 3 3 4 4 4 5 6 8 9 10 9 7 6 6 6 6 6 5 5 5 5 5 4 5 5 6 6
8 7 4 4 5 5 3 3 3 3 4 4 3 3 3 3 3 4 4 4 4 5 6 7 9 10 10 8 7 7 6 6 6 6 6 5 5 4 4 5 5 5 5
8 8 5 5 6 4 4 4 4 4 3 3 4 5 4 4 3 4 3 4 4 5 6 7 8 9 10 9 8 7 6 6 5 5 5 5 5 5 5 5 5 5 5
7 7 4 4 4 4 4 4 3 5 4 2 4 4 5 5 5 4 4 4 4 5 7 7 7 7 8 9 8 8 8 7 6 5 5 6 6 6 6 6 6 6 6
6 6 4 3 3 4 4 4 4 3 2 2 3 3 3 5 5 5 4 4 4 6 6 6 7 7 7 7 7 8 9 8 7 7 7 7 6 6 7 7 7 7 7
6 6 6 5 3 3 3 3 3 4 2 2 2 3 3 2 1 4 4 4 4 4 4 6 7 7 7 7 7 7 9 9 8 8 8 7 7 6 6 7 7 7 7
6 7 6 6 4 3 3 3 3 3 3 1 2 2 2 4 3 1 3 4 4 4 4 4 6 6 7 7 7 8 9 9 8 8 9 9 8 8 8 8 8 8 8
5 6 6 5 4 3 3 3 4 4 3 2 1 1 2 3 2 3 1 2 3 4 3 4 4 5 6 6 6 7 9 9 9 9 9 9 9 8 8 8 8 7 8
2 4 5 5 4 3 3 3 4 4 3 3 3 2 2 2 1 2 2 1 1 2 3 3 4 4 5 5 6 8 9 9 9 9 9 8 8 8 7 7 8 8 8
1 1 3 3 3 3 4 4 4 4 3 3 3 2 2 1 2 3 3 2 1 1 2 3 3 3 4 5 5 7 8 8 8 8 8 8 8 8 8 9 9 10 9
2 2 3 4 4 5 5 5 4 3 3 3 4 3 3 2 2 2 3 4 2 2 3 2 2 3 3 4 5 6 7 7 8 9 9 8 8 8 8 9 10 10 10
3 4 4 5 5 5 5 5 4 4 4 4 4 4 3 2 2 2 2 3 4 2 1 2 2 3 3 3 5 6 6 7 8 8 9 9 9 9 9 9 10 10 10
3 4 4 4 4 4 5 5 4 3 5 4 3 4 4 3 3 3 3 2 3 4 2 1 1 1 2 3 4 5 6 7 7 8 8 9 9 9 9 9 9 10 10
4 4 4 4 4 4 4 5 4 4 4 4 3 4 4 3 3 3 3 3 3 3 3 1 1 2 2 3 3 4 4 5 6 7 7 8 8 8 8 9 9 9 10
4 5 4 4 4 4 4 4 4 3 4 3 2 3 3 3 4 3 3 3 2 2 3 2 1 2 2 1 2 2 3 4 4 6 7 7 7 7 8 9 9 9 9
5 5 4 4 4 4 4 3 4 3 3 2 2 3 2 4 3 3 3 3 2 3 3 3 0 1 2 2 3 3 4 4 4 5 6 6 6 7 7 8 8 8 8
5 5 4 4 4 4 4 4 4 4 3 2 2 2 2 3 3 3 3 3 3 4 3 3 2 1 1 2 2 2 3 3 3 5 5 5 6 7 7 7 7 7 7
5 5 5 4 4 4 4 5 5 5 4 3 2 2 2 3 3 3 3 3 3 3 3 2 1 1 1 2 1 1 1 3 3 3 3 4 5 4 5 6 6 6 6
5 5 5 5 4 3 6 8 6 4 4 4 2 1 2 3 4 5 5 5 5 4 3 2 1 1 1 1 1 0 1 2 3 3 2 3 3 3 4 5 6 6 6
5 5 4 4 4 3 6 7 8 5 4 3 3 2 2 2 3 3 4 5 4 4 4 4 3 2 2 2 1 0 1 0 2 3 2 3 3 3 5 6 7 6 6
5 5 4 4 3 2 5 7 8 5 4 3 2 2 2 1 2 3 3 3 3 2 1 2 3 2 2 2 2 2 1 0 2 3 1 2 3 3 5 6 7 7 7
5 4 4 4 4 2 5 7 7 4 4 2 2 2 2 2 1 4 4 3 3 3 3 3 2 2 2 2 2 2 2 2 3 3 2 0 2 4 4 4 6 7 7
5 5 4 4 4 3 4 7 7 4 4 2 2 2 2 2 2 4 4 3 2 1 2 3 4 4 4 3 3 2 2 0 1 2 2 0 2 3 4 3 4 6 7
Wind_Direction
135 142 161 153 183 154 122 100 69 63 69 76 95 107 105 106 95 88 81 78 70 60 56 58 66 84 93 92 96 92 81 76 82 77 79 75 66 57 54 50 43 35 27
118 117 107 98 87 109 115 100 79 70 62 75 85 99 105 105 104 103 89 74 66 63 56 59 63 69 77 81 80 76 73 70 71 73 76 69 62 55 52 49 44 35 30
107 100 91 77 83 101 99 87 72 67 66 70 65 76 90 96 110 107 92 77 64 61 58 63 67 64 67 72 71 73 71 70 71 72 68 62 53 49 48 46 44 36 31
98 93 86 75 84 88 86 79 69 64 57 64 59 53 69 78 101 109 96 84 75 65 61 66 67 62 61 62 68 71 69 65 65 64 61 57 51 46 46 42 41 36 31
96 93 85 79 84 80 72 87 74 84 77 73 78 61 52 53 70 91 86 84 85 77 75 72 63 58 55 54 58 63 65 61 57 55 51 51 46 45 45 37 34 31 27
94 92 87 77 79 76 65 74 77 66 74 82 79 59 39 40 53 69 72 74 78 80 78 73 62 52 50 49 52 54 55 56 54 53 46 42 42 44 45 35 27 23 21
96 92 86 71 72 82 84 89 88 71 51 60 74 50 29 34 44 41 51 63 63 75 78 75 71 59 46 40 44 50 49 48 47 51 46 44 44 44 43 36 28 21 17
97 103 99 86 79 87 75 74 88 86 48 50 98 85 41 16 17 26 32 54 57 70 72 74 74 61 52 48 44 51 48 45 49 53 49 46 44 41 37 30 26 20 14
96 105 104 98 88 93 95 90 103 111 99 29 67 129 132 175 346 2 19 32 42 52 61 71 69 63 55 57 51 52 47 43 47 50 47 42 40 37 33 29 23 16 14
94 103 102 102 96 94 97 100 106 116 119 98 25 47 132 152 143 54 357 6 23 43 45 60 62 60 61 65 62 56 50 44 45 45 42 41 39 38 34 28 23 18 13
78 97 102 101 97 92 99 96 90 93 104 121 115 81 67 66 88 128 118 347 7 12 30 50 59 57 58 64 59 56 53 46 42 41 39 38 37 35 32 27 22 17 16
53 74 94 96 98 100 100 99 98 95 93 96 94 93 116 112 127 124 131 105 34 360 20 31 43 47 55 54 53 54 52 47 43 41 37 36 34 32 31 28 25 23 20
80 68 86 95 96 104 102 96 92 85 83 90 92 86 84 103 145 131 123 121 75 1 10 13 15 36 48 50 49 50 49 43 43 38 34 32 34 37 37 33 30 27 23
156 136 102 103 104 103 100 93 87 84 80 81 78 84 77 57 81 121 138 133 94 30 20 350 350 16 36 52 53 53 49 42 39 34 31 36 42 43 43 39 34 30 23
143 124 110 101 93 93 97 95 86 76 81 78 76 79 77 58 59 71 105 135 137 123 339 318 340 348 14 56 56 60 55 45 40 35 40 45 45 48 46 40 36 31 26
131 127 117 110 101 94 94 95 87 79 83 75 75 75 65 54 57 59 79 91 117 137 150 279 284 302 7 57 52 55 52 41 36 38 45 44 47 49 46 40 36 33 31
139 133 132 127 118 109 105 104 100 97 93 77 67 77 65 60 62 48 62 76 86 111 120 317 347 356 29 41 38 44 49 45 34 31 37 39 40 43 40 36 34 34 33
142 138 133 131 130 122 115 117 117 102 100 92 79 78 65 72 64 54 68 70 78 100 126 122 351 359 14 13 38 41 35 33 29 25 29 31 32 32 30 26 31 31 28
133 127 133 138 135 127 122 123 125 111 107 115 114 108 94 92 74 65 73 73 72 78 91 117 56 360 9 16 31 22 28 20 11 9 17 21 23 23 22 23 24 24 22
133 135 143 146 138 130 126 125 122 111 102 100 106 113 115 122 128 110 90 88 92 82 80 93 76 18 5 350 36 19 4 357 356 7 11 14 14 12 10 12 14 15 14
139 139 132 127 130 130 136 132 125 121 117 103 85 88 101 116 122 120 114 120 111 100 91 91 82 36 359 1 342 321 357 336 336 352 354 359 2 3 351 348 353 358 358
132 124 124 130 128 135 138 137 135 128 126 127 120 89 74 70 84 87 93 109 128 130 133 126 131 151 265 280 298 353 23 6 328 329 359 331 359 338 335 334 334 337 341
136 127 128 129 128 137 134 134 134 129 127 133 135 131 108 82 85 87 76 72 71 101 142 152 159 203 216 232 197 26 347 290 272 292 340 317 325 317 323 325 328 327 324
147 144 147 142 131 135 134 130 128 117 113 112 126 143 133 110 122 124 102 68 42 26 71 130 170 205 214 206 188 186 204 300 312 319 359 307 317 311 321 325 324 322 323
152 150 147 140 131 125 127 129 121 112 106 95 94 106 122 127 137 127 111 91 44 4 35 69 83 63 51 63 93 75 43 39 340 315 321 277 305 314 310 311 327 330 328
152 144 138 141 141 142 130 130 129 123 118 105 65 49 73 103 124 126 126 122 97 334 19 32 35 31 35 35 40 106 162 128 316 301 288 297 307 330 325 307 324 333 332
Height
1559 1560 1560 1560 1561 1561 1561 1562 1562 1562 1562 1562 1562 1563 1563 1562 1562 1562 1561 1560 1559 1558 1556 1555 1554 1553 1553 1554 1554 1554 1555 1555 1555 1555 1555 1555 1555 1555 1555 1555 1554 1554 1553
1560 1561 1561 1561 1561 1562 1562 1562 1562 1563 1563 1563 1563 1563 1564 1563 1563 1563 1562 1561 1560 1559 1557 1556 1554 1554 1554 1554 1554 1554 1554 1554 1555 1555 1555 1555 1555 1555 1554 1554 1554 1553 1553
1561 1561 1562 1562 1562 1562 1563 1563 1563 1563 1563 1564 1564 1564 1564 1564 1564 1564 1563 1562 1561 1560 1558 1557 1556 1555 1554 1554 1554 1554 1554 1554 1554 1555 1554 1554 1554 1554 1554 1554 1553 1553 1552
1562 1562 1562 1562 1563 1563 1563 1564 1564 1564 1564 1564 1565 1565 1565 1565 1565 1565 1564 1563 1562 1561 1560 1558 1557 1556 1555 1555 1554 1554 1554 1554 1554 1554 1554 1554 1554 1553 1553 1553 1552 1552 1552
1563 1563 1563 1563 1564 1564 1564 1564 1564 1565 1565 1565 1565 1566 1566 1566 1566 1565 1565 1564 1563 1562 1561 1560 1558 1557 1556 1555 1555 1554 1554 1554 1554 1554 1554 1554 1553 1553 1552 1552 1552 1551 1551
1563 1563 1564 1564 1564 1564 1565 1565 1565 1566 1566 1566 1566 1566 1567 1567 1567 1566 1566 1565 1564 1563 1562 1561 1559 1558 1557 1556 1555 1554 1554 1554 1554 1553 1553 1553 1553 1552 1552 1551 1551 1550 1550
1564 1564 1564 1565 1565 1565 1565 1566 1566 1566 1566 1567 1567 1567 1568 1568 1568 1567 1567 1566 1565 1564 1563 1562 1560 1558 1556 1555 1554 1554 1554 1554 1553 1553 1553 1553 1552 1552 1551 1551 1550 1549 1549
1564 1565 1565 1566 1566 1566 1566 1566 1567 1567 1567 1567 1568 1568 1568 1570 1569 1568 1568 1567 1566 1565 1564 1562 1561 1558 1555 1553 1552 1553 1553 1553 1553 1553 1553 1552 1552 1551 1550 1550 1549 1548 1548
1565 1565 1566 1566 1566 1567 1567 1567 1567 1567 1567 1568 1568 1569 1569 1569 1569 1570 1569 1568 1567 1566 1565 1563 1561 1558 1554 1552 1551 1552 1553 1554 1553 1553 1552 1552 1551 1550 1549 1549 1548 1547 1546
1566 1566 1566 1567 1567 1567 1567 1567 1568 1568 1568 1568 1568 1568 1569 1568 1569 1569 1570 1569 1568 1567 1566 1564 1563 1560 1556 1553 1552 1553 1554 1554 1553 1553 1552 1551 1550 1549 1548 1547 1546 1546 1545
1566 1566 1567 1567 1567 1567 1567 1568 1568 1568 1568 1568 1568 1568 1568 1568 1568 1568 1569 1569 1569 1568 1566 1565 1564 1562 1559 1557 1556 1555 1555 1554 1553 1552 1551 1550 1549 1548 1547 1546 1545 1544 1543
1566 1567 1567 1567 1568 1568 1568 1568 1568 1568 1568 1568 1568 1568 1568 1568 1568 1568 1568 1568 1568 1568 1567 1566 1564 1563 1561 1559 1557 1556 1555 1554 1553 1552 1550 1549 1548 1546 1546 1545 1544 1542 1541
1566 1567 1567 1568 1568 1568 1568 1568 1568 1568 1568 1568 1568 1568 1568 1568 1568 1568 1568 1568 1568 1568 1567 1567 1565 1564 1562 1561 1559 1558 1556 1555 1553 1551 1549 1547 1546 1545 1544 1543 1542 1541 1539
1566 1567 1567 1568 1568 1568 1569 1569 1569 1568 1568 1568 1568 1568 1568 1568 1568 1568 1568 1568 1567 1568 1567 1567 1566 1565 1563 1562 1560 1559 1557 1555 1553 1550 1548 1545 1543 1542 1542 1542 1541 1540 1537
1566 1567 1568 1568 1568 1569 1569 1569 1569 1569 1569 1569 1568 1568 1568 1568 1568 1568 1568 1568 1568 1567 1567 1567 1566 1565 1564 1562 1561 1559 1557 1555 1553 1550 1547 1544 1542 1541 1541 1541 1540 1539 1537
1566 1567 1568 1568 1568 1569 1569 1569 1569 1569 1569 1569 1569 1568 1568 1568 1568 1568 1567 1567 1567 1567 1566 1566 1566 1565 1564 1562 1561 1560 1558 1556 1553 1551 1548 1545 1543 1542 1541 1541 1540 1539 1537
1566 1566 1567 1568 1568 1569 1569 1569 1570 1570 1569 1569 1569 1569 1568 1568 1568 1568 1567 1567 1567 1567 1566 1566 1565 1565 1564 1562 1561 1560 1558 1556 1554 1552 1549 1547 1545 1544 1543 1542 1540 1539 1537
1565 1566 1567 1568 1569 1569 1569 1570 1570 1570 1570 1569 1569 1569 1569 1569 1568 1568 1567 1567 1567 1566 1566 1565 1565 1564 1563 1562 1561 1560 1558 1556 1554 1553 1551 1549 1547 1545 1544 1542 1540 1539 1537
1565 1566 1567 1568 1569 1569 1569 1570 1570 1569 1569 1569 1569 1569 1569 1569 1568 1568 1568 1567 1567 1566 1565 1565 1564 1563 1562 1562 1560 1559 1558 1556 1554 1553 1551 1549 1547 1546 1544 1542 1540 1539 1537
1564 1565 1566 1567 1568 1569 1569 1569 1569 1569 1569 1569 1569 1569 1569 1569 1568 1568 1567 1567 1566 1566 1565 1564 1563 1562 1562 1561 1560 1558 1557 1555 1553 1552 1550 1549 1547 1545 1543 1542 1540 1538 1536
1563 1564 1566 1567 1567 1568 1568 1569 1569 1569 1569 1569 1569 1569 1569 1568 1568 1567 1567 1566 1566 1565 1564 1563 1562 1561 1561 1560 1559 1557 1556 1554 1553 1551 1549 1548 1546 1544 1542 1541 1539 1537 1535
1562 1563 1565 1566 1567 1567 1568 1568 1568 1568 1568 1568 1568 1568 1568 1568 1567 1567 1566 1565 1565 1564 1563 1562 1561 1560 1559 1559 1557 1556 1555 1553 1551 1551 1548 1546 1545 1543 1541 1539 1537 1536 1534
1561 1562 1564 1565 1566 1566 1567 1567 1567 1567 1567 1567 1568 1568 1567 1567 1566 1566 1565 1564 1564 1563 1563 1562 1560 1559 1558 1557 1556 1555 1554 1552 1551 1549 1547 1544 1543 1541 1539 1537 1536 1534 1532
1559 1561 1562 1564 1564 1565 1566 1566 1566 1566 1566 1566 1566 1566 1566 1566 1565 1565 1564 1563 1563 1562 1561 1560 1559 1558 1557 1556 1555 1554 1552 1550 1549 1548 1546 1543 1541 1538 1536 1535 1533 1531 1529
1558 1559 1560 1562 1563 1564 1564 1565 1565 1565 1565 1565 1565 1565 1565 1564 1564 1564 1563 1562 1561 1560 1560 1559 1558 1557 1555 1554 1553 1552 1550 1548 1546 1545 1543 1541 1538 1536 1533 1532 1530 1528 1526
1556 1557 1559 1560 1561 1562 1563 1563 1563 1563 1563 1563 1563 1563 1563 1563 1563 1562 1561 1560 1559 1559 1558 1557 1556 1555 1554 1552 1551 1550 1548 1546 1544 1542 1541 1539 1536 1534 1530 1528 1527 1525 1523